SAA280 FAOR-YPPH

Flight info

Callsign SAA280
Flight time N/A
Altitude 35000
Route EXOBI1A EXOBI DCT EGSOX DCT 31S040E 33S045E/N0464F370 35S051E DCT RAXES UT451 SUNKI DCT 38S082E/N0455F390 38S089E 37S096E 35S102E 34S109E DCT KAGMI
Aircraft A343/H-SDE2E3FGHIJ4J5M1RWXY/LB1D1

Departure

Time 2026-05-03 21:40
Airport O.R. Tambo International Airport (FAOR)

Arrival

Time N/A
Airport Perth International Airport (YPPH)
Time Latitude Longitude Altitude Speed Heading
2026-05-03 21:12 -26.13039 28.23612 5550 ft 0 kts
2026-05-03 21:30 -26.13064 28.23610 5551 ft 4 kts
2026-05-03 21:30 -26.13087 28.23607 5553 ft 2 kts
2026-05-03 21:30 -26.13110 28.23600 5553 ft 4 kts 41°
2026-05-03 21:31 -26.13123 28.23577 5553 ft 4 kts 85°
2026-05-03 21:31 -26.13122 28.23549 5552 ft 4 kts 96°
2026-05-03 21:31 -26.13120 28.23532 5553 ft 0 kts 96°
2026-05-03 21:34 -26.13121 28.23543 5552 ft 3 kts 96°
2026-05-03 21:34 -26.13125 28.23578 5552 ft 6 kts 96°
2026-05-03 21:34 -26.13130 28.23630 5553 ft 8 kts 96°
2026-05-03 21:35 -26.13151 28.23681 5553 ft 6 kts 148°
2026-05-03 21:35 -26.13193 28.23681 5553 ft 6 kts 194°
2026-05-03 21:35 -26.13249 28.23664 5552 ft 10 kts 195°
2026-05-03 21:35 -26.13317 28.23643 5556 ft 11 kts 195°
2026-05-03 21:36 -26.13398 28.23618 5557 ft 14 kts 195°
2026-05-03 21:36 -26.13509 28.23584 5559 ft 19 kts 195°
2026-05-03 21:36 -26.13649 28.23540 5558 ft 23 kts 195°
2026-05-03 21:36 -26.13803 28.23492 5564 ft 23 kts 195°
2026-05-03 21:37 -26.13955 28.23445 5564 ft 23 kts 195°
2026-05-03 21:37 -26.14107 28.23398 5568 ft 22 kts 195°
2026-05-03 21:37 -26.14264 28.23350 5568 ft 24 kts 195°
2026-05-03 21:37 -26.14426 28.23299 5569 ft 23 kts 195°
2026-05-03 21:38 -26.14561 28.23285 5568 ft 13 kts 163°
2026-05-03 21:38 -26.14603 28.23337 5570 ft 7 kts 114°
2026-05-03 21:38 -26.14616 28.23387 5571 ft 6 kts 104°
2026-05-03 21:38 -26.14617 28.23436 5571 ft 6 kts 67°
2026-05-03 21:39 -26.14588 28.23453 5570 ft 5 kts 15°
2026-05-03 21:39 -26.14585 28.23454 5570 ft 0 kts 15°
2026-05-03 21:39 -26.14562 28.23461 5570 ft 17 kts 15°
2026-05-03 21:39 -26.14259 28.23553 5572 ft 72 kts 15°
2026-05-03 21:40 -26.13610 28.23755 5564 ft 121 kts 15°
2026-05-03 21:40 -26.12659 28.24050 5548 ft 162 kts 15°
2026-05-03 21:40 -26.11456 28.24414 5648 ft 186 kts 15°
2026-05-03 21:40 -26.10305 28.24791 6489 ft 169 kts 15°
2026-05-03 21:41 -26.09162 28.25172 6897 ft 178 kts 14°
2026-05-03 21:41 -26.07946 28.25597 7262 ft 188 kts 15°
2026-05-03 21:41 -26.06688 28.26091 7713 ft 195 kts 18°
2026-05-03 21:41 -26.05435 28.26744 8036 ft 206 kts 36°
2026-05-03 21:42 -26.04366 28.27884 8279 ft 221 kts 47°
2026-05-03 21:42 -26.03697 28.29491 8460 ft 243 kts 79°
2026-05-03 21:42 -26.03495 28.31429 8632 ft 262 kts 76°
2026-05-03 21:42 -26.03178 28.33490 8959 ft 277 kts 80°
2026-05-03 21:43 -26.02984 28.35645 9390 ft 289 kts 84°
2026-05-03 21:43 -26.02956 28.37905 9882 ft 298 kts 90°
2026-05-03 21:43 -26.03147 28.40244 10304 ft 310 kts 95°
2026-05-03 21:43 -26.03305 28.42657 10719 ft 317 kts 88°
2026-05-03 21:44 -26.03333 28.45164 10980 ft 332 kts 90°
2026-05-03 21:44 -26.03653 28.47772 11202 ft 348 kts 103°
2026-05-03 21:44 -26.04397 28.50391 11456 ft 361 kts 108°
2026-05-03 21:44 -26.05199 28.53048 11703 ft 373 kts 107°
2026-05-03 21:45 -26.06003 28.55853 11956 ft 384 kts 106°
2026-05-03 21:45 -26.06789 28.58708 12368 ft 390 kts 106°
2026-05-03 21:45 -26.07568 28.61608 12828 ft 393 kts 105°
2026-05-03 21:45 -26.08344 28.64536 13342 ft 395 kts 105°
2026-05-03 21:46 -26.09117 28.67476 13835 ft 398 kts 106°
2026-05-03 21:46 -26.09892 28.70437 14289 ft 400 kts 105°
2026-05-03 21:46 -26.10465 28.73496 14682 ft 403 kts 94°
2026-05-03 21:46 -26.10359 28.76566 15073 ft 405 kts 81°
2026-05-03 21:47 -26.09927 28.79672 15470 ft 408 kts 79°
2026-05-03 21:47 -26.09456 28.82801 15886 ft 411 kts 79°
2026-05-03 21:47 -26.08988 28.85955 16298 ft 414 kts 79°
2026-05-03 21:47 -26.08522 28.89128 16716 ft 417 kts 79°
2026-05-03 21:48 -26.08053 28.92336 17123 ft 421 kts 79°
2026-05-03 21:48 -26.07583 28.95562 17543 ft 424 kts 79°
2026-05-03 21:48 -26.07115 28.98784 17965 ft 427 kts 79°
2026-05-03 21:48 -26.06638 29.02057 18390 ft 430 kts 79°
2026-05-03 21:49 -26.06157 29.05361 18779 ft 434 kts 79°
2026-05-03 21:49 -26.05675 29.08690 19149 ft 436 kts 79°
2026-05-03 21:49 -26.05404 29.12070 19521 ft 441 kts 88°
2026-05-03 21:49 -26.05695 29.15479 19896 ft 445 kts 101°
2026-05-03 21:50 -26.06614 29.18786 20278 ft 449 kts 111°
2026-05-03 21:50 -26.07864 29.21962 20672 ft 451 kts 115°
2026-05-03 21:50 -26.09258 29.25108 21037 ft 454 kts 116°
2026-05-03 21:50 -26.10715 29.28243 21374 ft 457 kts 117°
2026-05-03 21:51 -26.12171 29.31347 21726 ft 459 kts 117°
2026-05-03 21:51 -26.13648 29.34521 22095 ft 462 kts 116°
2026-05-03 21:51 -26.15114 29.37712 22447 ft 464 kts 116°
2026-05-03 21:51 -26.16572 29.40924 22800 ft 466 kts 116°
2026-05-03 21:52 -26.18029 29.44157 23153 ft 469 kts 116°
2026-05-03 21:52 -26.19492 29.47422 23509 ft 471 kts 115°
2026-05-03 21:52 -26.20959 29.50700 23839 ft 474 kts 115°
2026-05-03 21:52 -26.22435 29.54004 24130 ft 476 kts 115°
2026-05-03 21:53 -26.23898 29.57280 24358 ft 480 kts 116°
2026-05-03 21:53 -26.25390 29.60620 24697 ft 480 kts 116°
2026-05-03 21:53 -26.26878 29.63952 25038 ft 481 kts 116°
2026-05-03 21:53 -26.28370 29.67297 25318 ft 483 kts 116°
2026-05-03 21:54 -26.29872 29.70665 25616 ft 485 kts 116°
2026-05-03 21:54 -26.31378 29.74045 25900 ft 487 kts 116°
2026-05-03 21:54 -26.32882 29.77424 26195 ft 488 kts 116°
2026-05-03 21:54 -26.34396 29.80828 26471 ft 490 kts 116°
2026-05-03 21:55 -26.35913 29.84239 26717 ft 492 kts 116°
2026-05-03 21:55 -26.37443 29.87684 26924 ft 495 kts 116°
2026-05-03 21:55 -26.38960 29.91103 27195 ft 497 kts 116°
2026-05-03 21:55 -26.40497 29.94569 27458 ft 498 kts 116°
2026-05-03 21:56 -26.42040 29.98052 27751 ft 499 kts 116°
2026-05-03 21:56 -26.43574 30.01517 28098 ft 498 kts 116°
2026-05-03 21:56 -26.45110 30.04990 28342 ft 500 kts 116°
2026-05-03 21:56 -26.46653 30.08482 28569 ft 502 kts 116°
2026-05-03 21:57 -26.48204 30.11992 28788 ft 504 kts 116°
2026-05-03 21:57 -26.49758 30.15514 28956 ft 507 kts 116°
2026-05-03 21:57 -26.51301 30.19014 29158 ft 508 kts 116°
2026-05-03 21:57 -26.52862 30.22559 29397 ft 510 kts 116°
2026-05-03 21:58 -26.54429 30.26118 29720 ft 509 kts 116°
2026-05-03 21:58 -26.55991 30.29669 30068 ft 508 kts 116°
2026-05-03 21:58 -26.57546 30.33208 30374 ft 507 kts 116°
2026-05-03 21:58 -26.59101 30.36751 30618 ft 506 kts 116°
2026-05-03 21:59 -26.60648 30.40277 30933 ft 504 kts 116°
2026-05-03 21:59 -26.62196 30.43810 31108 ft 505 kts 116°
2026-05-03 21:59 -26.63727 30.47305 31288 ft 506 kts 116°
2026-05-03 21:59 -26.65275 30.50844 31515 ft 506 kts 116°
2026-05-03 22:00 -26.66820 30.54377 31724 ft 506 kts 116°
2026-05-03 22:00 -26.68367 30.57918 31917 ft 506 kts 116°
2026-05-03 22:00 -26.69914 30.61463 32122 ft 506 kts 116°
2026-05-03 22:00 -26.71459 30.65006 32333 ft 506 kts 116°
2026-05-03 22:01 -26.73005 30.68554 32527 ft 506 kts 116°
2026-05-03 22:01 -26.74549 30.72100 32748 ft 506 kts 116°
2026-05-03 22:01 -26.76089 30.75639 32946 ft 505 kts 116°
2026-05-03 22:01 -26.77621 30.79164 33236 ft 503 kts 116°
2026-05-03 22:02 -26.79130 30.82638 33439 ft 502 kts 116°